Location: Trois-Rivi�res
(46.3500°N, 72.5500°W)
Time: 18:40:00
(UTC-04:00)

Tiangong 2 - Pass Details

Date: 13 October 2017
Orbit: 388 x 391 km, 42.8° (Epoch: 23 October)

Event Time Altitude Azimuth Distance (km) Brightness Sun altitude
Exits shadow 04:21:10 11° 106° (ESE) 1,360 4.4 -28.7°
Drops below altitude 10° 04:21:17 10° 105° (ESE) 1,398 4.5 -28.7°
Sets 04:23:40 0° 90° (E) 2,279 6.0 -28.3°
